sat.trackr.live / text

‹ back to catalog

JILIN-1 KUANFU 02A

NORAD 57696 · 2023-127A

PAYLOAD ACTIVE UNKNOWN

§ Identity

Operator
Country
PRC
Launch date
2023-08-25
Launch site
JSC
Launch vehicle
Mass (kg)
RCS (m²)

External: N2YO · Heavens-Above · Gunter

§ Orbital elements

Epoch: 2026-09-21T21:49:59.794176Z

Period
95.40 min
Inclination
97.5554°
Eccentricity
0.0012850
Mean motion
15.09444405 rev/d
Perigee alt
529.0 km
Apogee alt
546.8 km
Semi-major
6,916.0 km
B*
1.2762e-4
RAAN
357.4856°
Arg perigee
336.1825°
Mean anomaly
23.8808°
Rev number
17,023

§ Raw data

JILIN-1 KUANFU 02A1 57696U 23127A   26264.90971984  .00001981  00000+0  12762-3 0  99942 57696  97.5554 357.4856 0012850 336.1825  23.8808 15.09444405170230

JSON: /api/v1/satellites/57696 · /tle

For live sub-satellite position, see the globe view (requires WebGL).

§ Visibility from observer

Set your observer location to see the next 7 days of passes ≥ 10°. The values pass through the URL so the page stays shareable.

No JS? Fill the form by hand. The geolocation button needs JavaScript.